TimeCST,TemperatureF,Dew PointF,Humidity,Sea Level PressureIn,VisibilityMPH,Wind Direction,Wind SpeedMPH,Gust SpeedMPH,PrecipitationIn,Events,Conditions,WindDirDegrees,DateUTC
12:15 AM,44.6,30.2,57,29.95,10.0,SW,8.1,-,N/A,,Scattered Clouds,230,2014-02-22 06:15:00
12:35 AM,42.8,30.2,61,29.99,10.0,WNW,6.9,-,N/A,,Scattered Clouds,290,2014-02-22 06:35:00
12:55 AM,42.8,28.4,57,29.99,10.0,West,3.5,-,N/A,,Clear,260,2014-02-22 06:55:00
1:15 AM,39.2,30.2,70,29.98,10.0,Calm,Calm,-,N/A,,Clear,0,2014-02-22 07:15:00
1:35 AM,41.0,28.4,61,29.99,10.0,West,3.5,-,N/A,,Clear,280,2014-02-22 07:35:00
1:55 AM,42.8,28.4,57,29.99,10.0,Calm,Calm,-,N/A,,Clear,0,2014-02-22 07:55:00
2:15 AM,41.0,28.4,61,29.99,10.0,West,4.6,-,N/A,,Clear,260,2014-02-22 08:15:00
2:35 AM,42.8,28.4,57,29.99,10.0,SW,5.8,-,N/A,,Clear,230,2014-02-22 08:35:00
2:55 AM,39.2,28.4,65,29.99,10.0,SSW,4.6,-,N/A,,Clear,200,2014-02-22 08:55:00
3:15 AM,39.2,28.4,65,29.99,10.0,SSW,4.6,-,N/A,,Clear,200,2014-02-22 09:15:00
3:35 AM,39.2,28.4,65,29.99,10.0,SSW,5.8,-,N/A,,Clear,210,2014-02-22 09:35:00
3:55 AM,39.2,28.4,65,29.99,10.0,SSW,4.6,-,N/A,,Clear,210,2014-02-22 09:55:00
4:15 AM,39.2,28.4,65,30.00,10.0,SW,4.6,-,N/A,,Clear,220,2014-02-22 10:15:00
4:35 AM,37.4,28.4,70,30.01,10.0,SSW,4.6,-,N/A,,Clear,210,2014-02-22 10:35:00
4:55 AM,39.2,28.4,65,30.01,10.0,SW,3.5,-,N/A,,Clear,220,2014-02-22 10:55:00
5:15 AM,35.6,28.4,75,30.02,10.0,SSW,3.5,-,N/A,,Clear,210,2014-02-22 11:15:00
5:35 AM,37.4,28.4,70,30.02,10.0,SSW,3.5,-,N/A,,Clear,200,2014-02-22 11:35:00
5:55 AM,33.8,28.4,81,30.03,10.0,South,3.5,-,N/A,,Clear,190,2014-02-22 11:55:00
6:15 AM,37.4,28.4,70,30.03,10.0,South,5.8,-,N/A,,Clear,190,2014-02-22 12:15:00
6:35 AM,35.6,28.4,75,30.03,10.0,South,4.6,-,N/A,,Clear,190,2014-02-22 12:35:00
6:55 AM,35.6,28.4,75,30.03,10.0,Calm,Calm,-,N/A,,Clear,0,2014-02-22 12:55:00
7:15 AM,33.8,28.4,81,30.03,10.0,Calm,Calm,-,N/A,,Clear,0,2014-02-22 13:15:00
7:35 AM,35.6,30.2,81,30.04,10.0,Calm,Calm,-,N/A,,Clear,0,2014-02-22 13:35:00
7:55 AM,39.2,32.0,75,30.05,10.0,South,4.6,-,N/A,,Clear,190,2014-02-22 13:55:00
8:15 AM,42.8,32.0,66,30.05,10.0,South,4.6,-,N/A,,Clear,190,2014-02-22 14:15:00
8:35 AM,42.8,32.0,66,30.05,10.0,South,5.8,-,N/A,,Clear,190,2014-02-22 14:35:00
8:55 AM,44.6,32.0,61,30.05,10.0,South,5.8,-,N/A,,Clear,190,2014-02-22 14:55:00
9:15 AM,44.6,33.8,66,30.04,10.0,South,5.8,-,N/A,,Clear,180,2014-02-22 15:15:00
9:35 AM,46.4,33.8,62,30.04,10.0,South,6.9,-,N/A,,Clear,180,2014-02-22 15:35:00
9:55 AM,46.4,35.6,66,30.04,10.0,SSW,5.8,-,N/A,,Clear,200,2014-02-22 15:55:00
10:15 AM,48.2,35.6,62,30.04,10.0,South,5.8,-,N/A,,Clear,190,2014-02-22 16:15:00
10:35 AM,51.8,35.6,54,30.03,10.0,South,6.9,-,N/A,,Clear,190,2014-02-22 16:35:00
10:55 AM,53.6,33.8,47,30.03,10.0,SSW,6.9,-,N/A,,Clear,200,2014-02-22 16:55:00
11:15 AM,53.6,35.6,51,30.02,10.0,South,5.8,-,N/A,,Clear,180,2014-02-22 17:15:00
11:35 AM,55.4,35.6,47,30.02,10.0,South,6.9,-,N/A,,Clear,180,2014-02-22 17:35:00
11:55 AM,55.4,35.6,47,30.01,10.0,South,4.6,-,N/A,,Clear,170,2014-02-22 17:55:00
12:15 PM,57.2,35.6,44,29.99,10.0,South,5.8,-,N/A,,Clear,180,2014-02-22 18:15:00
12:35 PM,57.2,35.6,44,29.98,10.0,South,8.1,-,N/A,,Clear,190,2014-02-22 18:35:00
12:55 PM,57.2,35.6,44,29.97,10.0,South,6.9,-,N/A,,Clear,180,2014-02-22 18:55:00
1:15 PM,59.0,35.6,42,29.96,10.0,South,8.1,-,N/A,,Clear,190,2014-02-22 19:15:00
1:35 PM,60.8,33.8,36,29.95,10.0,SSW,5.8,-,N/A,,Clear,210,2014-02-22 19:35:00
1:55 PM,60.8,32.0,34,29.95,10.0,SW,8.1,-,N/A,,Clear,230,2014-02-22 19:55:00
2:15 PM,60.8,35.6,39,29.94,10.0,South,6.9,-,N/A,,Clear,190,2014-02-22 20:15:00
2:36 PM,60.8,30.2,31,29.93,10.0,SW,4.6,-,N/A,,Clear,220,2014-02-22 20:36:00
2:55 PM,62.6,30.2,30,29.92,10.0,South,4.6,-,N/A,,Clear,190,2014-02-22 20:55:00
3:15 PM,62.6,33.8,34,29.91,10.0,Calm,Calm,-,N/A,,Clear,0,2014-02-22 21:15:00
3:35 PM,62.6,32.0,32,29.90,10.0,SSE,4.6,-,N/A,,Clear,160,2014-02-22 21:35:00
3:55 PM,62.6,35.6,37,29.90,10.0,South,6.9,-,N/A,,Clear,170,2014-02-22 21:55:00
4:15 PM,60.8,35.6,39,29.89,10.0,South,9.2,-,N/A,,Clear,190,2014-02-22 22:15:00
4:35 PM,60.8,32.0,34,29.89,10.0,SSW,9.2,-,N/A,,Clear,200,2014-02-22 22:35:00
4:55 PM,60.8,32.0,34,29.89,10.0,South,8.1,-,N/A,,Clear,190,2014-02-22 22:55:00
5:15 PM,57.2,33.8,41,29.89,10.0,SW,4.6,-,N/A,,Clear,220,2014-02-22 23:15:00
5:35 PM,57.2,32.0,38,29.90,10.0,SW,3.5,-,N/A,,Clear,220,2014-02-22 23:35:00
5:55 PM,55.4,33.8,44,29.90,10.0,South,4.6,-,N/A,,Clear,190,2014-02-22 23:55:00
6:16 PM,55.4,32.0,41,29.91,10.0,SSW,3.5,-,N/A,,Clear,200,2014-02-23 00:16:00
6:35 PM,50.0,33.8,54,29.92,10.0,Calm,Calm,-,N/A,,Clear,0,2014-02-23 00:35:00
6:55 PM,48.2,33.8,58,29.93,10.0,NNW,6.9,-,N/A,,Clear,330,2014-02-23 00:55:00
7:15 PM,46.4,39.2,76,29.95,10.0,North,11.5,20.7,N/A,,Clear,350,2014-02-23 01:15:00
7:35 PM,44.6,37.4,76,29.95,10.0,North,16.1,20.7,N/A,,Clear,360,2014-02-23 01:35:00
7:55 PM,42.8,35.6,76,29.97,10.0,North,15.0,21.9,N/A,,Clear,360,2014-02-23 01:55:00
8:15 PM,42.8,35.6,76,29.98,10.0,North,16.1,25.3,N/A,,Clear,10,2014-02-23 02:15:00
8:35 PM,42.8,33.8,70,30.00,10.0,North,13.8,-,N/A,,Clear,10,2014-02-23 02:35:00
8:55 PM,42.8,33.8,70,30.00,10.0,NNE,18.4,23.0,N/A,,Clear,20,2014-02-23 02:55:00
9:15 PM,41.0,33.8,76,30.00,10.0,NNE,12.7,16.1,N/A,,Clear,30,2014-02-23 03:15:00
9:35 PM,39.2,33.8,81,30.01,10.0,NNE,11.5,-,N/A,,Clear,30,2014-02-23 03:35:00
9:55 PM,39.2,33.8,81,30.01,10.0,NNE,11.5,-,N/A,,Clear,30,2014-02-23 03:55:00
10:15 PM,39.2,33.8,81,30.01,10.0,NNE,10.4,17.3,N/A,,Clear,30,2014-02-23 04:15:00
10:35 PM,39.2,33.8,81,30.02,10.0,NNE,10.4,-,N/A,,Clear,20,2014-02-23 04:35:00
10:55 PM,39.2,33.8,81,30.02,10.0,NNE,9.2,-,N/A,,Scattered Clouds,30,2014-02-23 04:55:00
11:15 PM,39.2,33.8,81,30.02,10.0,NE,9.2,-,N/A,,Scattered Clouds,40,2014-02-23 05:15:00
11:35 PM,39.2,33.8,81,30.03,10.0,NNE,8.1,-,N/A,,Scattered Clouds,30,2014-02-23 05:35:00
11:55 PM,39.2,33.8,81,30.03,10.0,NNE,8.1,-,N/A,,Mostly Cloudy,30,2014-02-23 05:55:00